#timestamp,LO_Frequency,Hit,StdDev 
1589047215.2,286046998.2,N
1589047235.1,286047000.2,N
1589047236.0,286047000.2,N
1589047255.8,286047000.3,N
1589047275.6,286047000.1,N
1589047295.5,286047000.8,N
1589047315.3,286047000.4,N
1589047335.2,286047000.0,N
1589047355.9,286046999.7,N
1589047375.7,286047000.3,N
1589047395.6,286047000.8,N
1589047415.4,286046998.9,N
1589047435.2,286046999.4,N
1589047455.1,286046998.4,N
1589047456.0,286046998.4,N
1589047475.8,286047001.0,N
1589047495.7,286046999.7,N
1589047515.5,286047001.1,N
1589047535.3,286047000.6,N
1589047555.2,286046999.1,N
1589047575.0,286046998.3,N
1589047575.9,286046998.3,N
1589047595.8,286046998.7,N
1589047615.6,286046996.9,N
1589047635.4,286046996.7,N
1589047655.3,286046994.9,Y
1589047675.1,286046998.3,P
1589047695.8,286046998.4,P
1589047715.7,286046999.0,N
1589047735.5,286046998.1,Y
1589047755.4,286047003.7,P
1589047775.2,286047003.0,N
1589047795.0,286047003.9,N
1589047795.9,286047003.9,N
1589047815.8,286047003.1,N
1589047835.6,286047005.9,Y
1589047855.5,286047002.1,P
1589047875.3,286047002.7,P
1589047895.1,286047000.2,N
1589047915.9,286046999.9,N
1589047935.7,286047000.2,N
1589047955.5,286047000.3,N
1589047975.4,286047000.4,N
1589047995.2,286047000.1,N
1589048015.1,286047000.7,N
1589048016.0,286047000.7,N
1589048035.8,286046998.3,N
1589048055.6,286046999.1,N
1589048075.5,286046999.5,N
1589048095.3,286047000.8,N
1589048115.2,286047000.3,N
1589048135.9,286047002.6,N
1589048155.7,286047001.6,N
1589048175.6,286047001.3,N
1589048195.4,286047000.0,N
1589048215.2,286047002.4,N
1589048235.1,286047001.6,N
1589048236.0,286047001.6,N
1589048255.8,286047001.7,N
1589048275.7,286047003.0,N
1589048295.5,286047006.0,Y
1589048315.3,286047004.1,P
1589048335.2,286047002.9,N
1589048355.0,286047001.5,N
1589048355.9,286047001.5,N
1589048375.8,286046999.7,N
1589048395.6,286047004.1,N
1589048415.4,286047001.3,N
1589048435.3,286047004.3,N
1589048455.1,286047004.4,N
1589048475.8,286047002.7,N
1589048495.7,286047002.4,N
1589048515.5,286046999.9,N
1589048535.4,286047002.3,N
1589048555.2,286046999.8,N
1589048575.0,286047002.1,N
1589048575.9,286047002.1,N
1589048595.8,286047000.2,N
1589048615.6,286047002.4,N
1589048635.5,286047002.6,N
1589048655.3,286047001.6,N
1589048675.1,286047002.8,N
1589048695.9,286047002.6,N
1589048715.7,286047002.5,N
1589048735.5,286047002.2,N
1589048755.4,286047000.5,N
1589048775.2,286047000.3,N
1589048795.1,286047000.3,N
1589048796.0,286047000.3,N
1589048815.8,286047000.9,N
1589048835.6,286047001.3,N
1589048855.5,286047001.3,N
1589048875.3,286047004.2,Y
1589048895.1,286047000.2,P
1589048915.9,286047000.9,N
1589048935.7,286047000.3,N
1589048955.6,286047000.7,N
1589048975.4,286047000.8,N
1589048995.2,286046999.4,N
1589049015.1,286047000.6,N
1589049016.0,286047000.6,N
1589049035.8,286046998.2,Y
1589049055.7,286046999.0,P
1589049075.5,286046999.1,N
1589049095.3,286046999.6,N
1589049115.2,286046997.4,Y
1589049135.0,286046999.4,P
1589049135.9,286046999.4,P
1589049155.7,286046997.0,P
1589049175.6,286046996.6,Y
1589049195.4,286047001.1,P
1589049215.3,286047001.2,N
1589049235.1,286047001.2,N
1589049236.0,286047001.2,N
1589049255.8,286047000.8,N
1589049275.7,286047000.2,N
1589049295.5,286047000.6,N
1589049315.4,286046999.7,N
1589049335.2,286047002.8,Y
1589049355.0,286047001.1,P
1589049355.9,286047001.1,P
1589049375.8,286047001.0,P
1589049395.6,286047002.8,Y
1589049415.4,286046999.0,P
1589049435.3,286046999.3,N
1589049455.1,286047000.3,N
1589049475.9,286047000.9,N
1589049495.7,286047000.6,N
1589049515.5,286046998.4,N
1589049535.4,286046998.8,N
1589049585.2,286046999.0,E
1589049595.2,286047000.8,N
1589049615.9,286047000.6,P
1589049635.7,286047002.6,P
1589049655.6,286047004.4,Y
1589049675.4,286047000.1,P
1589049695.3,286047002.5,P
1589049715.1,286047001.5,N
1589049716.0,286047001.5,N
1589049735.8,286046998.1,N
1589049755.7,286047001.1,N
1589049775.5,286047000.6,N
1589049795.3,286046998.2,N
1589049815.2,286046998.5,N
1589049835.0,286047000.3,N
1589049835.9,286047000.3,N
1589049855.8,286047000.8,N
1589049875.6,286046998.6,N
1589049895.4,286046998.5,N
1589049915.3,286046999.5,N
1589049935.1,286046998.8,N
1589049955.8,286047000.5,N
1589049975.7,286046999.9,N
1589049995.5,286047002.6,N
1589050015.4,286047002.4,N
1589050035.2,286047001.0,N
1589050055.0,286047002.2,N
1589050055.9,286047002.2,N
1589050075.8,286047003.7,N
1589050095.6,286047003.6,N
1589050115.5,286047004.3,N
1589050135.3,286047001.5,N
1589050155.1,286046999.8,N
1589050175.9,286046998.6,N
1589050195.7,286047000.9,N
1589050215.5,286046998.1,N
1589050235.4,286046999.8,N
1589050255.2,286047001.2,N
1589050275.1,286046999.1,N
1589050276.0,286046999.1,N
1589050295.8,286046999.4,N
1589050315.6,286047001.2,N
1589050335.5,286046999.1,N
1589050355.3,286046995.3,N
1589050375.1,286046995.5,N
1589050395.9,286046996.1,N
1589050415.7,286046996.9,N
1589050435.6,286046999.3,N
1589050455.4,286046998.7,N
1589050475.2,286046999.2,N
1589050495.1,286046999.3,N
1589050496.0,286046999.3,N
1589050515.8,286046998.6,N
1589050535.7,286047004.1,N
1589050555.5,286047004.3,N
1589050575.3,286047004.0,N
1589050595.2,286047002.2,N
1589050615.0,286047002.2,N
1589050615.9,286047002.2,N
1589050635.7,286047002.3,N
1589050655.6,286047002.5,N
1589050675.4,286046999.7,N
1589050695.3,286047002.5,N
1589050715.1,286046999.7,N
1589050716.0,286046999.7,N
1589050735.8,286046998.3,N
1589050755.7,286047001.0,N
1589050775.5,286046998.1,N
1589050795.4,286047000.6,N
